AST,Max TemperatureF,Mean TemperatureF,Min TemperatureF,Max Dew PointF,MeanDew PointF,Min DewpointF,Max Humidity, Mean Humidity, Min Humidity, Max Sea Level PressureIn, Mean Sea Level PressureIn, Min Sea Level PressureIn, Max VisibilityMiles, Mean VisibilityMiles, Min VisibilityMiles, Max Wind SpeedMPH, Mean Wind SpeedMPH, Max Gust SpeedMPH,PrecipitationIn, CloudCover, Events, WindDirDegrees
2011-11-1,87,82,78,77,76,72,89,80,70,29.89,29.83,29.77,6,6,6,15,9,,0.00,2,Rain,92
2011-11-2,87,82,78,79,76,57,89,77,35,29.89,29.82,29.77,6,6,6,15,10,,0.00,2,,97
2011-11-3,89,84,80,81,77,75,94,82,62,29.86,29.81,29.74,6,6,6,15,11,,0.00,2,Rain-Thunderstorm,115
2011-11-4,87,84,80,79,78,75,94,84,74,29.86,29.79,29.71,6,6,5,17,11,,0.00,2,Rain,114
2011-11-5,86,82,77,81,78,72,100,90,79,29.86,29.80,29.71,6,6,3,10,5,,0.00,3,Rain-Thunderstorm,114
2011-11-6,87,82,78,81,79,77,100,87,79,29.89,29.81,29.74,6,6,6,13,6,,0.00,1,Rain,108
2011-11-7,87,84,80,79,78,77,89,83,70,29.86,29.80,29.74,6,6,6,15,9,,0.00,2,Thunderstorm,105
2011-11-8,87,84,80,79,78,77,94,83,75,29.83,29.79,29.74,6,6,6,16,10,,0.00,2,,96
2011-11-9,87,82,78,79,78,77,94,85,70,29.83,29.78,29.71,6,6,6,10,6,,0.00,2,Rain,104
2011-11-10,89,84,80,81,78,77,94,84,66,29.86,29.80,29.74,6,6,6,12,7,,0.00,2,Thunderstorm,107
2011-11-11,87,82,78,81,78,75,94,85,75,29.89,29.82,29.77,6,6,6,15,9,,0.00,2,Rain,97
2011-11-12,87,82,78,77,77,75,89,80,70,29.92,29.86,29.80,6,6,6,17,13,,0.00,2,Rain,90
2011-11-13,82,78,75,77,75,73,100,90,79,29.92,29.86,29.80,6,6,2,110,13,,0.00,3,Rain-Thunderstorm,114
2011-11-14,86,82,77,79,77,73,94,85,74,29.92,29.85,29.80,6,6,6,14,9,21,0.00,2,,108
2011-11-15,87,82,78,79,76,75,89,79,70,29.89,29.83,29.77,6,6,6,16,11,,0.00,3,Rain,89
2011-11-16,87,84,78,77,75,73,84,76,70,29.86,29.82,29.77,6,6,6,14,11,,0.00,2,,85
2011-11-17,86,82,77,79,75,73,89,81,70,29.89,29.82,29.77,6,6,6,13,6,,0.00,2,,111
2011-11-18,86,82,78,77,75,73,89,79,70,29.89,29.84,29.80,6,6,6,15,10,,0.00,2,Rain,95
2011-11-19,86,82,77,77,75,73,94,81,70,29.92,29.87,29.80,6,6,6,14,10,,0.00,2,Rain,100
2011-11-20,86,82,77,77,75,75,94,80,70,29.92,29.87,29.80,6,6,6,17,10,,0.00,2,,88
2011-11-21,86,82,77,77,74,72,94,77,70,29.92,29.86,29.80,6,6,6,15,9,29,0.00,3,Rain,65
2011-11-22,86,82,77,77,75,72,89,82,74,29.92,29.87,29.83,6,6,6,18,8,,0.00,3,Rain,105
2011-11-23,82,78,75,77,76,73,100,89,79,29.95,29.91,29.83,6,6,5,15,10,,0.00,2,Rain-Thunderstorm,122
2011-11-24,82,78,75,77,76,73,94,86,79,29.92,29.88,29.83,6,6,6,17,11,,0.00,2,Rain-Thunderstorm,101
2011-11-25,82,78,75,79,76,72,100,90,84,29.95,29.87,29.77,6,6,6,25,12,40,0.00,3,Rain,104
2011-11-26,84,80,75,79,76,73,94,86,79,29.89,29.83,29.74,6,6,6,16,12,,0.00,3,Rain,95
2011-11-27,86,82,78,79,77,75,89,85,74,29.83,29.76,29.71,6,6,6,17,11,,0.00,2,Rain,65
2011-11-28,86,82,77,79,77,75,94,82,74,29.80,29.74,29.68,6,6,6,8,5,,0.00,2,Rain,60
2011-11-29,86,82,77,77,76,75,94,85,74,29.83,29.78,29.74,6,6,6,14,4,,0.00,3,Thunderstorm,39
2011-11-30,86,82,77,77,76,75,94,84,74,29.86,29.80,29.74,6,6,6,14,6,,0.00,4,Rain,72